Terminal Aerodrome Forecast
Issued by NWS Pendleton, OR

Home | Current Version | Previous Version | Text Only | Print | Product List | Glossary On
Versions: 1 2 3 4 5 6 7 8 9 10 11 12 13 14 15 16 17
615
FTUS46 KPDT 251120
TAFPDT
TAF
KPDT 251120Z 2512/2612 12006KT P6SM BKN200
     FM251900 VRB06KT P6SM BKN050 BKN100
     FM252300 VRB06KT P6SM VCSH BKN050 OVC100
     FM260300 17006KT P6SM SCT050 BKN100=

USA.gov is the U.S. government's official web portal to all federal, state and local government web resources and services.